SCP
0 0 0 0 0 0 0 0 0 0 0 0 0 0 0 0 0 0 0 0 0 0 0 0 0 0 0 0 0 0 0 0 0 0 0 0 0 0 0 0 0 0 0
0 0 0 0 0 0 0 0 0 0 0 0 0 0 0 0 0 0 0 0 0 0 0 0 0 0 0 0 0 0 0 0 0 0 0 0 0 0 0 0 0 0 0
0 0 0 0 0 0 0 0 0 0 0 0 0 0 0 0 0 0 0 0 0 0 0 0 0 0 0 0 0 0 0 0 0 0 0 0 0 0 0 0 0 0 0
0 0 0 0 0 0 0 0 0 0 0 0 0 0 0 0 0 0 0 0 0 0 0 0 0 0 0 0 0 0 0 0 0 0 0 0 0 0 0 0 0 0 0
0 0 0 0 0 0 0 0 0 0 0 0 0 0 0 0 0 0 0 0 0 0 0 0 0 0 0 0 0 0 0 0 0 0 0 0 0 0 0 0 0 0 0
1 0 0 0 0 0 0 0 0 0 0 0 0 0 0 0 0 0 0 0 0 0 0 0 0 0 0 0 0 0 0 0 0 0 0 0 0 0 0 0 0 0 0
1 1 0 0 0 0 0 0 0 0 0 0 0 0 0 0 0 0 0 0 0 0 0 0 0 0 0 0 0 0 0 0 0 0 0 0 0 0 0 0 0 0 0
0 0 0 0 1 0 0 0 0 0 0 0 0 0 0 0 0 0 0 0 0 0 0 0 0 0 0 0 0 0 0 0 0 1 1 1 1 0 0 0 0 0 0
0 0 0 0 0 0 0 0 0 0 0 0 0 0 0 0 0 0 0 0 0 0 0 0 0 0 0 0 0 0 0 0 1 1 1 1 1 0 0 0 0 0 0
0 0 0 0 0 0 0 0 0 0 0 0 0 0 0 0 0 0 0 0 0 0 0 0 0 0 0 0 0 0 0 0 0 0 1 1 1 1 0 0 0 0 0
0 0 0 0 0 0 0 0 0 0 0 0 0 0 0 0 0 0 0 0 0 0 0 0 0 0 0 0 0 0 0 0 0 0 0 1 1 1 0 0 0 0 0
0 0 0 0 0 0 0 0 0 0 0 0 0 0 0 0 0 0 0 0 0 0 0 0 0 0 0 0 0 0 0 0 0 0 0 0 1 1 1 1 0 1 1
0 0 0 0 0 0 0 0 0 0 0 0 0 0 0 0 0 0 0 0 0 0 0 0 0 0 0 0 0 0 0 0 0 0 0 0 0 1 1 1 0 0 0
0 0 0 0 0 0 0 0 0 0 0 0 0 0 0 0 0 0 0 0 0 0 0 0 0 0 0 0 0 0 0 0 0 0 0 0 0 0 0 0 0 0 0
0 0 0 0 0 0 0 0 0 0 0 0 0 0 0 0 0 0 0 0 0 0 0 0 0 0 0 0 0 0 0 0 0 0 0 0 0 0 0 0 0 0 0
0 0 0 0 0 0 0 0 0 0 0 0 0 0 0 0 0 0 0 0 0 0 0 0 0 0 0 0 0 0 0 0 0 0 0 0 0 0 0 0 0 0 0
0 0 0 0 0 0 0 0 0 0 0 0 0 0 0 0 0 0 0 0 0 0 0 0 0 0 0 0 0 0 0 0 0 0 0 0 0 0 0 0 0 0 0
0 0 0 0 0 0 0 0 0 0 0 0 0 0 0 0 0 0 0 0 0 0 0 0 0 0 0 0 0 0 0 0 0 0 0 0 0 0 0 0 0 0 0
0 0 0 0 0 0 0 0 0 0 0 0 0 0 0 0 0 0 0 0 0 0 0 0 0 0 0 0 0 0 0 0 0 0 0 0 0 0 0 0 0 0 0
0 0 0 0 0 0 0 0 0 0 0 0 0 0 0 0 0 0 0 0 0 0 0 0 0 0 0 0 0 0 0 0 0 0 0 0 0 0 0 0 0 0 0
0 0 0 0 0 0 0 0 0 0 0 0 0 0 0 0 0 0 0 0 0 0 0 0 0 0 0 0 0 0 0 0 0 0 0 0 0 0 0 0 0 0 0
0 0 0 0 0 0 0 0 0 0 0 0 0 0 0 0 0 0 0 0 0 0 0 0 0 0 0 0 0 0 0 0 0 0 0 0 0 0 0 0 0 0 0
0 0 0 0 0 0 0 0 0 0 0 0 0 0 0 0 0 0 0 0 0 0 0 0 0 0 0 0 0 0 0 0 0 0 0 0 0 0 0 0 0 0 0
0 0 0 0 0 0 0 0 0 0 0 0 0 0 0 0 0 0 0 0 0 0 0 0 0 0 0 0 0 0 0 0 0 0 0 0 0 0 0 0 0 0 0
0 0 0 0 0 0 0 0 0 0 0 0 0 0 0 0 0 0 0 0 0 0 0 0 0 0 0 0 0 0 0 0 0 0 0 0 0 0 0 0 0 0 0
0 0 0 0 0 0 0 0 0 0 0 0 0 0 0 0 0 0 0 0 0 0 0 0 0 0 0 0 0 0 0 0 0 0 0 0 0 0 0 0 0 0 0
Wind_Speed
3 2 2 2 2 2 2 2 2 2 2 2 3 3 4 4 4 3 2 7 8 8 8 8 8 8 8 8 8 7 7 7 7 7 7 7 7 7 7 7 6 6 6
3 3 2 2 1 1 2 2 2 2 2 2 2 3 3 3 3 3 2 3 7 7 7 8 8 8 8 8 8 7 7 7 7 7 7 6 7 7 7 7 6 6 6
4 3 3 2 2 2 2 2 2 2 2 2 2 2 2 3 3 3 2 1 2 5 7 7 7 8 8 9 9 9 8 7 8 8 7 7 7 7 6 6 7 6 6
4 3 3 2 2 2 2 2 2 2 2 2 1 1 1 1 2 3 2 2 2 2 4 7 7 7 8 8 9 9 9 9 8 9 9 8 8 8 7 7 7 7 6
5 4 3 2 3 3 2 2 2 2 2 2 1 1 1 1 1 2 3 3 3 3 2 4 6 7 8 9 9 9 9 9 9 9 10 10 9 9 8 8 8 8 8
5 4 3 3 4 3 2 2 2 2 2 2 2 2 1 0 0 1 2 2 3 3 3 3 3 4 7 8 8 8 8 9 9 10 10 11 11 10 10 10 9 9 9
5 5 3 3 3 3 3 4 3 3 2 1 2 2 2 2 0 1 1 2 3 4 4 4 3 3 3 5 6 7 8 9 10 10 10 10 11 10 10 11 10 10 10
5 5 5 4 4 3 3 3 3 2 2 1 2 2 1 2 2 1 1 2 3 3 4 5 4 4 4 3 4 7 8 9 9 10 10 10 10 10 10 11 11 11 11
5 5 6 5 4 4 4 4 4 4 3 1 1 3 3 2 2 2 2 1 2 2 3 3 5 5 5 4 4 6 8 8 9 10 10 9 10 10 10 11 11 11 12
5 5 6 5 5 4 4 4 3 3 4 2 1 1 1 3 2 1 2 1 2 2 3 3 4 4 5 5 5 7 9 8 9 10 9 9 9 9 10 10 11 11 11
4 5 5 5 5 4 4 4 4 3 3 3 3 2 2 1 1 2 1 2 2 2 2 3 3 4 5 5 5 7 9 9 8 8 8 8 8 9 9 10 11 11 11
3 4 5 5 5 4 5 4 4 4 3 3 2 2 3 2 2 2 2 1 2 2 2 2 3 4 4 5 7 9 9 9 9 9 8 8 8 8 8 9 11 11 11
3 5 5 5 4 4 5 4 4 4 4 4 3 2 2 2 2 3 2 1 1 2 2 2 3 3 4 4 5 8 8 9 9 9 9 9 8 8 8 9 10 10 11
5 5 6 5 5 5 5 5 4 3 3 3 3 3 2 2 2 3 3 3 1 1 2 3 2 2 3 3 5 6 6 9 9 10 10 9 9 9 9 9 9 9 9
5 6 6 6 5 5 5 5 3 4 4 3 3 3 2 1 2 2 2 3 3 2 2 3 2 2 2 3 4 4 5 7 8 9 10 10 10 10 10 10 10 10 10
5 6 6 6 6 5 5 5 4 4 4 3 2 3 2 1 1 1 2 2 2 3 3 2 2 2 3 2 2 3 4 6 7 8 8 9 9 9 9 10 10 10 11
5 6 6 6 6 6 5 5 4 4 4 3 3 3 2 2 2 1 1 2 2 2 3 2 2 2 2 3 3 2 2 2 3 5 6 7 7 8 8 9 9 10 10
5 6 6 5 5 5 5 5 5 4 4 3 3 3 2 2 2 2 1 2 2 2 3 2 1 1 2 2 2 2 2 2 2 3 5 6 6 7 7 7 8 8 9
5 5 5 5 4 4 5 4 4 4 4 3 2 2 1 2 1 1 1 1 1 1 2 2 1 1 1 2 2 2 3 3 3 3 3 3 3 4 4 4 5 6 6
6 6 5 5 4 4 4 4 4 4 3 3 3 2 1 2 1 1 1 1 1 1 1 1 1 1 1 2 2 2 3 3 3 4 4 3 4 4 4 4 4 4 4
6 6 6 5 5 4 3 4 4 4 4 4 4 4 4 5 4 2 1 1 1 1 1 0 0 1 2 2 3 2 3 3 2 3 3 3 3 3 3 4 4 4 4
6 7 6 6 6 4 5 6 6 5 5 5 5 5 6 7 9 10 10 9 6 3 1 1 1 2 2 2 2 3 2 3 2 3 3 3 3 3 4 3 5 6 6
6 7 7 7 7 6 8 8 9 7 7 6 5 5 5 6 6 6 10 13 14 14 9 3 3 3 3 3 3 3 2 2 2 4 3 3 3 3 4 4 5 6 6
7 6 7 7 7 7 10 11 12 9 8 7 7 6 6 6 6 6 8 10 10 10 9 7 6 5 5 4 3 2 2 2 2 3 4 3 4 4 5 4 4 6 6
8 8 7 8 8 8 10 10 9 8 8 9 8 8 7 7 9 9 9 9 9 7 10 13 12 11 12 12 8 4 4 3 3 2 4 4 4 5 5 3 3 6 7
9 9 9 9 9 8 10 11 10 7 8 7 7 8 12 11 11 11 9 8 8 6 6 7 9 10 9 11 13 7 5 4 3 3 4 4 4 5 5 3 4 6 7
Wind_Direction
147 141 130 114 111 107 114 112 109 116 114 115 127 138 146 150 152 153 177 187 184 185 180 177 176 175 172 172 173 173 174 171 165 164 164 163 162 162 161 159 157 156 156
157 154 148 142 139 135 130 123 118 119 116 117 122 136 150 154 156 156 170 199 197 193 192 192 189 187 187 184 183 184 185 182 178 179 180 179 178 179 177 174 173 171 169
163 157 157 162 166 148 131 108 97 94 106 109 115 129 141 155 157 164 176 184 201 207 203 202 200 198 199 196 196 195 194 195 192 191 191 192 190 190 189 188 186 187 186
167 157 161 172 160 140 130 126 114 99 95 107 112 116 127 144 169 180 183 186 195 211 215 212 208 208 211 213 212 206 203 204 202 200 200 202 202 200 199 199 199 200 200
172 163 165 165 152 138 135 146 111 123 131 130 125 93 95 138 179 203 204 205 207 211 218 230 225 220 221 225 226 221 215 212 209 208 209 211 212 210 207 208 208 209 210
167 156 153 156 149 137 134 125 115 95 108 125 102 73 37 1 202 223 227 216 213 217 217 228 232 235 234 235 234 231 225 220 218 217 217 218 219 216 213 213 214 215 217
159 156 154 151 150 150 154 145 120 110 95 107 94 51 14 13 328 253 242 230 228 224 215 220 221 224 237 242 242 239 235 231 227 223 222 223 224 221 218 218 219 221 223
160 163 158 157 153 137 133 143 135 126 105 110 124 104 29 348 339 341 266 237 239 227 226 225 219 221 227 234 245 248 244 240 238 233 227 224 224 224 224 225 225 225 227
165 161 160 151 152 151 160 164 156 147 142 114 126 140 148 215 292 321 308 274 258 231 236 234 228 227 226 227 237 247 248 243 243 244 238 231 228 230 231 230 230 230 231
166 164 159 155 159 158 161 171 159 151 142 147 124 89 135 153 154 297 319 307 282 246 242 240 238 235 230 228 231 235 243 240 241 245 244 238 233 233 234 234 237 237 236
166 166 159 158 162 160 164 163 154 154 150 154 157 146 120 90 111 145 259 310 315 277 253 244 244 242 236 231 233 238 240 240 240 243 243 241 237 236 236 239 243 244 243
163 167 161 161 163 161 164 165 160 159 158 149 149 151 155 157 171 162 188 246 279 290 280 254 243 241 236 231 236 238 236 237 238 241 243 243 240 240 242 245 248 249 249
177 183 172 166 167 168 163 155 155 161 164 160 163 165 169 171 156 154 157 186 256 294 305 277 248 244 242 231 238 241 241 238 237 238 239 239 241 243 246 248 250 253 256
184 177 174 173 172 167 162 156 154 165 164 168 169 162 164 178 171 171 166 156 170 303 300 287 290 253 250 243 245 243 249 243 240 239 238 238 241 243 247 250 252 255 257
179 175 176 173 172 169 164 158 160 165 161 173 173 171 171 188 185 189 178 169 164 200 264 280 287 296 278 256 255 246 247 250 247 244 242 241 243 246 249 251 253 253 254
178 170 175 175 171 171 167 162 161 165 164 174 174 168 177 191 182 180 183 185 181 182 226 257 263 289 304 305 276 251 253 258 255 253 249 246 246 249 252 253 254 255 255
173 175 176 172 171 170 168 166 169 168 172 178 176 175 191 181 180 184 176 177 186 183 215 260 261 291 306 326 336 320 288 273 273 260 256 252 250 252 254 256 258 259 259
170 170 165 165 171 168 166 170 174 171 172 179 181 176 197 184 185 184 180 192 198 201 208 244 280 299 305 329 328 332 331 315 291 284 266 259 258 260 262 263 265 264 262
156 151 149 151 156 155 157 164 162 160 163 166 162 168 181 159 174 169 179 195 210 205 202 217 266 306 316 345 341 343 350 345 334 334 321 308 302 298 293 292 286 277 271
143 140 137 137 135 136 144 147 148 146 141 134 128 126 119 137 170 169 166 196 176 160 170 204 274 329 330 345 0 353 349 354 354 358 0 4 6 1 350 337 323 310 296
136 131 122 113 109 111 121 134 135 131 124 112 94 85 74 74 73 82 86 83 116 121 124 109 24 23 11 5 359 347 338 335 346 5 349 356 360 357 352 352 351 351 340
121 116 114 109 97 91 94 111 118 113 108 102 93 81 72 61 64 68 69 64 60 60 58 64 48 37 12 357 351 351 345 349 339 0 341 330 346 341 339 348 4 3 1
105 100 101 100 94 84 92 100 105 101 91 85 82 78 72 62 63 74 72 67 58 53 54 68 59 35 14 357 350 352 352 341 321 333 330 314 340 333 333 347 2 3 2
96 93 93 96 92 81 87 94 96 90 83 74 71 73 77 66 65 82 83 73 64 53 51 58 63 47 35 15 5 353 331 324 306 356 357 321 331 322 323 324 353 0 358
91 86 82 83 85 75 76 89 97 93 85 73 64 62 70 71 66 80 85 81 70 56 57 60 59 52 45 39 32 28 21 14 352 3 10 340 326 318 308 301 324 349 347
91 86 77 70 74 74 71 80 91 96 91 83 71 62 61 70 66 70 78 80 74 55 49 50 45 38 37 36 37 36 21 13 353 341 4 343 329 331 311 303 320 329 325